STARLINK-31774 (59622 NORAD) Tracking and Keplerian Element Data

This shows tracking and keplerian element data for the satellite.

Feedback or suggestion? Click here.




ElementValue
Catalog59622
NameSTARLINK-31774
Epoch Orbit750
Epoch Day160.17600699
Epoch Year2024
RAAN87.9411
Inclination43.0017
Eccentricity0.0001625
Argument of Perigee280.7311
Mean Anonmoly79.3363
Mean Motion15.4071849
Decay Rate5.879E-05
L11 59622U 24080X 24160.17600699 .00005879 00000+0 14781-3 0 9991
L22 59622 43.0017 87.9411 0001625 280.7311 79.3363 15.40718490 7509



Live tracking and technical data element details for STARLINK-31774 (NORAD 59622). STARLINK-31774 can be tracked NOW for your location showing map with azimuth and elevation plus other details from your city location.







IsCatalogInMostPopularTable: catalog: 59622, numindb: 14
Update: records affected: 1



GetName: 59622 STARLINK-31774

Hit Count: updated at: Fri, 14 Jun 2024 17:56:13 GMT